Location: Cisewo
(53.3833°N, 14.9000°E)
Time: 11:47:27
(UTC+00:00)

Cosmos 2279 Rocket - Pass Details

Date: 18 April 2021
Orbit: 964 x 978 km, 82.9° (Epoch: 14 May)

Event Time Altitude Azimuth Distance (km) Brightness Sun altitude
Rises 19:34:57 0° 182° (S) 3,641 6.6 -12.2°
Reaches altitude 10° 19:37:26 10° 180° (S) 2,698 6.0 -12.5°
Maximum altitude 19:43:35 75° 97° (E) 1,003 3.9 -13.2°
Drops below altitude 10° 19:49:48 10° 13° (NNE) 2,718 6.7 -13.9°
Sets 19:52:19 0° 12° (NNE) 3,671 7.5 -14.2°
